TimeMST,TemperatureF,Dew PointF,Humidity,Sea Level PressureIn,VisibilityMPH,Wind Direction,Wind SpeedMPH,Gust SpeedMPH,PrecipitationIn,Events,Conditions,WindDirDegrees,DateUTC
12:16 AM,24.8,23.0,93,29.70,2.0,SE,20.7,28.8,0.00,Snow,Light Snow,130,2013-02-21 07:16:00
12:30 AM,24.8,23.0,93,29.69,1.5,ESE,17.3,-,0.00,Snow,Light Snow,120,2013-02-21 07:30:00
12:50 AM,21.2,19.4,93,29.68,2.0,ESE,18.4,-,0.00,Snow,Light Snow,110,2013-02-21 07:50:00
12:53 AM,21.9,19.9,92,29.77,2.0,East,16.1,-,0.00,Snow,Light Snow,100,2013-02-21 07:53:00
1:07 AM,21.2,19.4,93,29.69,3.0,ESE,20.7,-,0.00,,Overcast,120,2013-02-21 08:07:00
1:16 AM,21.2,19.4,93,29.67,4.0,ESE,17.3,25.3,0.00,,Overcast,110,2013-02-21 08:16:00
1:31 AM,21.2,19.4,93,29.68,3.0,East,12.7,-,0.00,,Overcast,100,2013-02-21 08:31:00
1:53 AM,21.0,19.0,92,29.78,5.0,East,18.4,-,0.00,,Overcast,100,2013-02-21 08:53:00
2:17 AM,19.4,17.6,93,29.70,1.8,ESE,17.3,-,0.00,Snow,Light Snow,110,2013-02-21 09:17:00
2:29 AM,19.4,15.8,86,29.69,1.5,East,13.8,26.5,0.00,Snow,Light Snow,100,2013-02-21 09:29:00
2:50 AM,19.4,15.8,86,29.68,3.0,East,12.7,-,0.00,Snow,Light Snow,100,2013-02-21 09:50:00
2:53 AM,19.0,16.0,88,29.79,4.0,East,12.7,-,0.00,Snow,Light Snow,100,2013-02-21 09:53:00
3:01 AM,19.4,15.8,86,29.68,6.0,East,17.3,-,0.00,,Overcast,90,2013-02-21 10:01:00
4:26 AM,17.6,14.0,86,29.71,1.8,East,15.0,-,0.00,Snow,Light Snow,90,2013-02-21 11:26:00
4:31 AM,17.6,14.0,86,29.71,2.5,East,15.0,-,0.00,Snow,Light Snow,90,2013-02-21 11:31:00
4:33 AM,17.6,14.0,86,29.71,3.0,East,12.7,-,0.00,Snow,Light Snow,90,2013-02-21 11:33:00
4:53 AM,17.1,12.9,84,29.81,8.0,East,17.3,-,0.00,,Overcast,80,2013-02-21 11:53:00
5:53 AM,14.0,10.9,88,29.85,8.0,ENE,16.1,-,0.01,,Overcast,60,2013-02-21 12:53:00
6:48 AM,14.0,10.4,86,29.75,2.5,East,11.5,-,0.00,Snow,Light Snow,80,2013-02-21 13:48:00
6:53 AM,14.0,10.9,88,29.86,1.2,ENE,12.7,-,0.00,Snow,Light Snow,70,2013-02-21 13:53:00
6:56 AM,14.0,10.4,86,29.75,0.8,ENE,11.5,-,0.00,Snow,Light Snow,70,2013-02-21 13:56:00
7:14 AM,12.2,10.4,92,29.75,1.0,East,11.5,-,0.00,Snow,Light Snow,80,2013-02-21 14:14:00
7:28 AM,12.2,10.4,92,29.76,0.8,East,9.2,-,0.00,Snow,Light Snow,80,2013-02-21 14:28:00
7:41 AM,12.2,10.4,92,29.76,0.8,NE,11.5,-,0.00,Snow,Light Snow,50,2013-02-21 14:41:00
7:53 AM,12.9,10.0,88,29.89,0.8,NE,12.7,-,0.00,Snow,Light Snow,50,2013-02-21 14:53:00
8:06 AM,12.2,8.6,85,29.77,1.0,NE,10.4,-,0.00,Snow,Light Snow,40,2013-02-21 15:06:00
8:46 AM,14.0,10.4,86,29.77,2.0,NNE,11.5,-,0.00,Snow,Light Snow,30,2013-02-21 15:46:00
8:53 AM,14.0,9.0,80,29.88,2.0,NNE,10.4,-,0.00,Snow,Light Snow,20,2013-02-21 15:53:00
9:13 AM,14.0,8.6,79,29.76,2.5,NNE,15.0,-,0.00,Snow,Light Snow,20,2013-02-21 16:13:00
9:50 AM,14.0,8.6,79,29.76,2.5,North,13.8,-,0.00,Snow,Light Snow,350,2013-02-21 16:50:00
9:53 AM,15.1,10.0,80,29.87,3.0,North,11.5,-,0.00,Snow,Light Snow,350,2013-02-21 16:53:00
10:09 AM,14.0,8.6,79,29.77,2.5,North,13.8,-,0.00,Snow,Light Snow,10,2013-02-21 17:09:00
10:26 AM,15.8,8.6,73,29.77,2.0,North,13.8,-,0.00,Snow,Light Snow,350,2013-02-21 17:26:00
10:44 AM,15.8,8.6,73,29.77,3.0,North,13.8,-,0.00,,Haze,350,2013-02-21 17:44:00
10:53 AM,15.1,10.0,80,29.88,5.0,North,16.1,-,0.00,,Haze,360,2013-02-21 17:53:00
11:36 AM,15.8,10.4,79,29.76,6.0,North,16.1,-,N/A,,Haze,360,2013-02-21 18:36:00
11:53 AM,16.0,10.0,77,29.87,6.0,North,16.1,-,N/A,,Haze,360,2013-02-21 18:53:00
12:53 PM,17.1,10.9,77,29.87,4.0,North,18.4,-,0.00,Snow,Light Snow,10,2013-02-21 19:53:00
1:53 PM,17.1,10.9,77,29.88,3.0,North,15.0,-,0.00,Snow,Light Snow,10,2013-02-21 20:53:00
2:12 PM,17.6,10.4,73,29.75,4.0,North,16.1,-,0.00,,Haze,10,2013-02-21 21:12:00
2:53 PM,17.1,10.9,77,29.88,6.0,North,15.0,-,0.00,,Haze,10,2013-02-21 21:53:00
3:16 PM,17.6,10.4,73,29.75,8.0,North,17.3,-,N/A,,Overcast,360,2013-02-21 22:16:00
3:46 PM,15.8,10.4,79,29.75,8.0,North,13.8,-,N/A,,Overcast,360,2013-02-21 22:46:00
3:53 PM,16.0,10.0,77,29.88,9.0,North,15.0,-,N/A,,Overcast,350,2013-02-21 22:53:00
4:00 PM,15.8,10.4,79,29.76,9.0,North,15.0,-,N/A,,Overcast,350,2013-02-21 23:00:00
4:10 PM,15.8,10.4,79,29.76,9.0,North,16.1,-,N/A,,Overcast,350,2013-02-21 23:10:00
4:20 PM,15.8,10.4,79,29.76,10.0,North,15.0,-,N/A,,Mostly Cloudy,350,2013-02-21 23:20:00
4:53 PM,16.0,10.0,77,29.90,10.0,NNW,15.0,-,N/A,,Mostly Cloudy,340,2013-02-21 23:53:00
5:30 PM,15.8,10.4,79,29.78,7.0,NNW,13.8,-,N/A,,Overcast,340,2013-02-22 00:30:00
5:53 PM,14.0,10.0,84,29.95,8.0,NNW,12.7,-,N/A,,Mostly Cloudy,340,2013-02-22 00:53:00
6:53 PM,12.9,9.0,84,29.98,10.0,NNW,12.7,-,N/A,,Mostly Cloudy,340,2013-02-22 01:53:00
7:00 PM,12.2,8.6,85,29.82,10.0,NNW,12.7,-,N/A,,Scattered Clouds,340,2013-02-22 02:00:00
7:17 PM,12.2,8.6,85,29.83,10.0,NNW,12.7,-,N/A,,Mostly Cloudy,340,2013-02-22 02:17:00
7:53 PM,14.0,10.0,84,30.00,8.0,NNW,11.5,-,N/A,,Overcast,340,2013-02-22 02:53:00
8:07 PM,12.2,8.6,85,29.85,8.0,NNW,11.5,-,N/A,,Overcast,330,2013-02-22 03:07:00
8:53 PM,14.0,10.9,88,30.02,7.0,NNW,11.5,-,N/A,,Overcast,340,2013-02-22 03:53:00
9:13 PM,14.0,10.4,86,29.86,4.0,NNW,11.5,-,0.00,Snow,Light Snow,340,2013-02-22 04:13:00
9:53 PM,12.9,10.0,88,30.01,7.0,NNW,10.4,-,0.00,,Overcast,340,2013-02-22 04:53:00
10:50 PM,10.4,6.8,85,29.84,10.0,NNW,10.4,-,N/A,,Scattered Clouds,330,2013-02-22 05:50:00
11:53 PM,6.1,3.9,91,30.04,10.0,WNW,5.8,-,N/A,,Clear,290,2013-02-22 06:53:00